M I D A S
Marine Information and Data Acquisition System
Tripno 1614 of the Zeeleeuw from 2008-11-24 08:15:56 to 2008-11-24 12:17:43
Back to CruiseResearch ActivitiesStationsMapUnderway DataData graphs

EquipmentUnitsComment
TimeDGPSUTC
LatitudeDGPSDM.mWGS84
LongitudeDGPSDM.mWGS84
HeadingGyrodeg 
SOGDGPSknotsSpeed over ground
COGDGPSdegCourse over ground
DepthEcho soundermeters200 kHz
Missing or incorrect values are displayed as -999
Navigation data collected by the RV Zeeleeuw from 2008-11-24 08:15:56 to 2008-11-24 12:17:43
                                                                                    Next 1000 lines
Time Latitude Longitude Heading SOG COG Depth
2008-11-24 08:16:10 51°13.623 2°56.046 119 0.1 261 -999
2008-11-24 08:16:20 51°13.623 2°56.047 119 0.1 261 -999
2008-11-24 08:16:30 51°13.623 2°56.048 119 0.1 261 -999
2008-11-24 08:16:40 51°13.623 2°56.049 119 0.1 261 -999
2008-11-24 08:16:50 51°13.623 2°56.048 119 0.1 261 -999
2008-11-24 08:17:00 51°13.622 2°56.049 111 0.1 159 -999
2008-11-24 08:17:10 51°13.622 2°56.048 111 0.1 159 -999
2008-11-24 08:17:20 51°13.622 2°56.048 111 0.1 159 -999
2008-11-24 08:17:30 51°13.622 2°56.048 111 0.1 159 -999
2008-11-24 08:17:40 51°13.622 2°56.048 111 0.1 159 -999
2008-11-24 08:17:50 51°13.621 2°56.048 111 0.1 159 -999
2008-11-24 08:18:00 51°13.622 2°56.047 105.5 0.4 298 -999
2008-11-24 08:18:10 51°13.623 2°56.043 105.5 0.4 298 -999
2008-11-24 08:18:20 51°13.625 2°56.037 105.5 0.4 298 -999
2008-11-24 08:18:30 51°13.627 2°56.028 105.5 0.4 298 -999
2008-11-24 08:18:40 51°13.63 2°56.016 105.5 0.4 298 -999
2008-11-24 08:18:50 51°13.634 2°56.004 105.5 0.4 298 -999
2008-11-24 08:19:00 51°13.638 2°55.989 108.5 3.7 294 -999
2008-11-24 08:19:10 51°13.642 2°55.974 108.5 3.7 294 -999
2008-11-24 08:19:20 51°13.645 2°55.96 108.5 3.7 294 -999
2008-11-24 08:19:30 51°13.646 2°55.951 108.5 3.7 294 -999
2008-11-24 08:19:40 51°13.647 2°55.948 108.5 3.7 294 -999
2008-11-24 08:19:50 51°13.647 2°55.946 108.5 3.7 294 -999
2008-11-24 08:20:00 51°13.648 2°55.941 113.5 1.3 292 -999
2008-11-24 08:20:10 51°13.65 2°55.933 113.5 1.3 292 -999
2008-11-24 08:20:20 51°13.653 2°55.923 113.5 1.3 292 -999
2008-11-24 08:20:30 51°13.657 2°55.912 113.5 1.3 292 -999
2008-11-24 08:20:40 51°13.662 2°55.899 113.5 1.3 292 -999
2008-11-24 08:20:50 51°13.668 2°55.887 113.5 1.3 292 -999
2008-11-24 08:21:00 51°13.674 2°55.874 125.4 3.7 306 -999
2008-11-24 08:21:10 51°13.68 2°55.86 125.4 3.7 306 -999
2008-11-24 08:21:20 51°13.687 2°55.847 125.4 3.7 306 -999
2008-11-24 08:21:30 51°13.693 2°55.833 125.4 3.7 306 -999
2008-11-24 08:21:40 51°13.7 2°55.818 125.4 3.7 306 -999
2008-11-24 08:21:50 51°13.706 2°55.802 125.4 3.7 306 -999
2008-11-24 08:22:00 51°13.711 2°55.787 112.5 3.79 296 -999
2008-11-24 08:22:10 51°13.714 2°55.772 112.5 3.79 296 -999
2008-11-24 08:22:20 51°13.718 2°55.759 112.5 3.79 296 -999
2008-11-24 08:22:30 51°13.72 2°55.748 112.5 3.79 296 -999
2008-11-24 08:22:40 51°13.721 2°55.74 112.5 3.79 296 -999
2008-11-24 08:22:50 51°13.722 2°55.736 112.5 3.79 296 -999
2008-11-24 08:23:00 51°13.723 2°55.739 91.7 0.9 65 -999
2008-11-24 08:23:10 51°13.724 2°55.743 91.7 0.9 65 -999
2008-11-24 08:23:20 51°13.725 2°55.743 91.7 0.9 65 -999
2008-11-24 08:23:30 51°13.725 2°55.74 91.7 0.9 65 -999
2008-11-24 08:23:40 51°13.723 2°55.734 91.7 0.9 65 -999
2008-11-24 08:23:50 51°13.721 2°55.729 91.7 0.9 65 -999
2008-11-24 08:24:00 51°13.721 2°55.727 47.2 0.2 351 -999
2008-11-24 08:24:10 51°13.724 2°55.73 47.2 0.2 351 -999
2008-11-24 08:24:20 51°13.727 2°55.731 47.2 0.2 351 -999
2008-11-24 08:24:30 51°13.728 2°55.732 47.2 0.2 351 -999
2008-11-24 08:24:40 51°13.727 2°55.73 47.2 0.2 351 -999
2008-11-24 08:24:50 51°13.722 2°55.73 47.2 0.2 351 -999
2008-11-24 08:25:00 51°13.718 2°55.729 353.8 1.3 186 -999
2008-11-24 08:25:10 51°13.717 2°55.728 353.8 1.3 186 -999
2008-11-24 08:25:20 51°13.72 2°55.725 353.8 1.3 186 -999
2008-11-24 08:25:30 51°13.727 2°55.72 353.8 1.3 186 -999
2008-11-24 08:25:40 51°13.738 2°55.71 353.8 1.3 186 -999
2008-11-24 08:25:50 51°13.751 2°55.698 353.8 1.3 186 -999
2008-11-24 08:26:00 51°13.767 2°55.684 331.8 6.7 332 -999
2008-11-24 08:26:10 51°13.785 2°55.669 331.8 6.7 332 -999
2008-11-24 08:26:20 51°13.804 2°55.653 331.8 6.7 332 -999
2008-11-24 08:26:30 51°13.824 2°55.638 331.8 6.7 332 -999
2008-11-24 08:26:40 51°13.845 2°55.621 331.8 6.7 332 -999
2008-11-24 08:26:50 51°13.867 2°55.605 331.8 6.7 332 -999
2008-11-24 08:27:00 51°13.89 2°55.589 334.5 9 336 -999
2008-11-24 08:27:10 51°13.913 2°55.571 334.5 9 336 -999
2008-11-24 08:27:20 51°13.936 2°55.554 334.5 9 336 -999
2008-11-24 08:27:30 51°13.959 2°55.536 334.5 9 336 -999
2008-11-24 08:27:40 51°13.982 2°55.519 334.5 9 336 -999
2008-11-24 08:27:50 51°14.006 2°55.501 334.5 9 336 -999
2008-11-24 08:28:00 51°14.03 2°55.484 334.5 9.5 335 -999
2008-11-24 08:28:10 51°14.054 2°55.466 334.5 9.5 335 -999
2008-11-24 08:28:20 51°14.077 2°55.448 334.5 9.5 335 -999
2008-11-24 08:28:30 51°14.099 2°55.431 334.5 9.5 335 -999
2008-11-24 08:28:40 51°14.125 2°55.41 334.5 9.5 335 -999
2008-11-24 08:28:50 51°14.15 2°55.389 334.5 9.5 335 -999
2008-11-24 08:29:00 51°14.172 2°55.369 331.8 10.19 328 -999
2008-11-24 08:29:10 51°14.198 2°55.341 331.8 10.19 328 -999
2008-11-24 08:29:20 51°14.222 2°55.314 331.8 10.19 328 -999
2008-11-24 08:29:30 51°14.244 2°55.285 331.8 10.19 328 -999
2008-11-24 08:29:40 51°14.265 2°55.251 331.8 10.19 328 -999
2008-11-24 08:29:50 51°14.285 2°55.217 331.8 10.19 328 -999
2008-11-24 08:30:00 51°14.305 2°55.18 311.8 11 313 -999
2008-11-24 08:30:10 51°14.326 2°55.144 311.8 11 313 -999
2008-11-24 08:30:20 51°14.346 2°55.109 311.8 11 313 -999
2008-11-24 08:30:30 51°14.367 2°55.075 311.8 11 313 -999
2008-11-24 08:30:40 51°14.39 2°55.042 311.8 11 313 -999
2008-11-24 08:30:50 51°14.412 2°55.01 311.8 11 313 -999
2008-11-24 08:31:00 51°14.428 2°54.973 305.8 10.19 303 -999
2008-11-24 08:31:10 51°14.44 2°54.933 305.8 10.19 303 -999
2008-11-24 08:31:20 51°14.448 2°54.889 305.8 10.19 303 -999
2008-11-24 08:31:30 51°14.45 2°54.846 305.8 10.19 303 -999
2008-11-24 08:31:40 51°14.447 2°54.802 305.8 10.19 303 -999
2008-11-24 08:31:50 51°14.439 2°54.76 305.8 10.19 303 -999
2008-11-24 08:32:00 51°14.425 2°54.721 244.6 10.3 241 -999
2008-11-24 08:32:10 51°14.411 2°54.681 244.6 10.3 241 -999
2008-11-24 08:32:20 51°14.397 2°54.64 244.6 10.3 241 -999
2008-11-24 08:32:30 51°14.382 2°54.6 244.6 10.3 241 -999
2008-11-24 08:32:40 51°14.365 2°54.561 244.6 10.3 241 -999
2008-11-24 08:32:50 51°14.349 2°54.523 244.6 10.3 241 -999
2008-11-24 08:33:00 51°14.333 2°54.483 237 10.59 240 -999
2008-11-24 08:33:10 51°14.318 2°54.444 237 10.59 240 -999
2008-11-24 08:33:20 51°14.306 2°54.402 237 10.59 240 -999
2008-11-24 08:33:30 51°14.293 2°54.361 237 10.59 240 -999
2008-11-24 08:33:40 51°14.28 2°54.32 237 10.59 240 -999
2008-11-24 08:33:50 51°14.267 2°54.278 237 10.59 240 -999
2008-11-24 08:34:00 51°14.253 2°54.237 242.3 10.59 243 -999
2008-11-24 08:34:10 51°14.239 2°54.197 242.3 10.59 243 -999
2008-11-24 08:34:20 51°14.224 2°54.158 242.3 10.59 243 -999
2008-11-24 08:34:30 51°14.21 2°54.118 242.3 10.59 243 -999
2008-11-24 08:34:40 51°14.195 2°54.079 242.3 10.59 243 -999
2008-11-24 08:34:50 51°14.18 2°54.04 242.3 10.59 243 -999
2008-11-24 08:35:00 51°14.167 2°54.006 237.5 10.3 241 -999
2008-11-24 08:35:10 51°14.15 2°53.963 237.5 10.3 241 -999
2008-11-24 08:35:20 51°14.135 2°53.925 237.5 10.3 241 -999
2008-11-24 08:35:30 51°14.12 2°53.885 237.5 10.3 241 -999
2008-11-24 08:35:40 51°14.106 2°53.845 237.5 10.3 241 -999
2008-11-24 08:35:50 51°14.093 2°53.805 237.5 10.3 241 -999
2008-11-24 08:36:00 51°14.08 2°53.765 241.6 10.09 244 -999
2008-11-24 08:36:10 51°14.067 2°53.724 241.6 10.09 244 -999
2008-11-24 08:36:20 51°14.055 2°53.683 241.6 10.09 244 -999
2008-11-24 08:36:30 51°14.041 2°53.643 241.6 10.09 244 -999
2008-11-24 08:36:40 51°14.03 2°53.601 241.6 10.09 244 -999
2008-11-24 08:36:50 51°14.018 2°53.559 241.6 10.09 244 -999
2008-11-24 08:37:00 51°14.007 2°53.517 246.8 10.4 248 -999
2008-11-24 08:37:10 51°13.996 2°53.474 246.8 10.4 248 -999
2008-11-24 08:37:20 51°13.984 2°53.427 246.8 10.4 248 -999
2008-11-24 08:37:30 51°13.973 2°53.389 246.8 10.4 248 -999
2008-11-24 08:37:40 51°13.963 2°53.345 246.8 10.4 248 -999
2008-11-24 08:37:50 51°13.953 2°53.307 246.8 10.4 248 -999
2008-11-24 08:38:00 51°13.94 2°53.261 247.5 10.4 249 -999
2008-11-24 08:38:10 51°13.929 2°53.217 247.5 10.4 249 -999
2008-11-24 08:38:20 51°13.918 2°53.174 247.5 10.4 249 -999
2008-11-24 08:38:30 51°13.908 2°53.136 247.5 10.4 249 -999
2008-11-24 08:38:40 51°13.895 2°53.089 247.5 10.4 249 -999
2008-11-24 08:38:50 51°13.884 2°53.046 247.5 10.4 249 -999
2008-11-24 08:39:00 51°13.872 2°53.004 247.6 10.5 241 -999
2008-11-24 08:39:10 51°13.861 2°52.963 247.6 10.5 241 -999
2008-11-24 08:39:20 51°13.851 2°52.92 247.6 10.5 241 -999
2008-11-24 08:39:30 51°13.84 2°52.877 247.6 10.5 241 -999
2008-11-24 08:39:40 51°13.829 2°52.833 247.6 10.5 241 -999
2008-11-24 08:39:50 51°13.818 2°52.791 247.6 10.5 241 -999
2008-11-24 08:40:00 51°13.807 2°52.748 247.1 10.4 249 -999
2008-11-24 08:40:10 51°13.797 2°52.71 247.1 10.4 249 -999
2008-11-24 08:40:20 51°13.781 2°52.66 247.1 10.4 249 -999
2008-11-24 08:40:30 51°13.769 2°52.624 247.1 10.4 249 -999
2008-11-24 08:40:40 51°13.755 2°52.582 247.1 10.4 249 -999
2008-11-24 08:40:50 51°13.741 2°52.543 247.1 10.4 249 -999
2008-11-24 08:41:00 51°13.727 2°52.502 241.5 10.4 243 -999
2008-11-24 08:41:10 51°13.713 2°52.461 241.5 10.4 243 -999
2008-11-24 08:41:20 51°13.699 2°52.421 241.5 10.4 243 -999
2008-11-24 08:41:30 51°13.684 2°52.376 241.5 10.4 243 -999
2008-11-24 08:41:40 51°13.671 2°52.341 241.5 10.4 243 -999
2008-11-24 08:41:50 51°13.656 2°52.301 241.5 10.4 243 -999
2008-11-24 08:42:00 51°13.642 2°52.261 240.5 10.4 241 -999
2008-11-24 08:42:10 51°13.626 2°52.217 240.5 10.4 241 -999
2008-11-24 08:42:20 51°13.613 2°52.181 240.5 10.4 241 -999
2008-11-24 08:42:30 51°13.599 2°52.142 240.5 10.4 241 -999
2008-11-24 08:42:40 51°13.585 2°52.101 240.5 10.4 241 -999
2008-11-24 08:42:50 51°13.571 2°52.06 240.5 10.4 241 -999
2008-11-24 08:43:00 51°13.557 2°52.019 240.9 10.5 244 -999
2008-11-24 08:43:10 51°13.543 2°51.978 240.9 10.5 244 -999
2008-11-24 08:43:20 51°13.53 2°51.942 240.9 10.5 244 -999
2008-11-24 08:43:30 51°13.514 2°51.898 240.9 10.5 244 -999
2008-11-24 08:43:40 51°13.5 2°51.857 240.9 10.5 244 -999
2008-11-24 08:43:50 51°13.486 2°51.816 240.9 10.5 244 -999
2008-11-24 08:44:00 51°13.472 2°51.775 240.8 10.69 241 -999
2008-11-24 08:44:10 51°13.457 2°51.734 240.8 10.69 241 -999
2008-11-24 08:44:20 51°13.444 2°51.692 240.8 10.69 241 -999
2008-11-24 08:44:30 51°13.429 2°51.651 240.8 10.69 241 -999
2008-11-24 08:44:40 51°13.415 2°51.611 240.8 10.69 241 -999
2008-11-24 08:44:50 51°13.4 2°51.569 240.8 10.69 241 -999
2008-11-24 08:45:00 51°13.386 2°51.528 241.5 10.59 242 -999
2008-11-24 08:45:10 51°13.372 2°51.487 241.5 10.59 242 -999
2008-11-24 08:45:20 51°13.359 2°51.445 241.5 10.59 242 -999
2008-11-24 08:45:30 51°13.344 2°51.404 241.5 10.59 242 -999
2008-11-24 08:45:40 51°13.332 2°51.367 241.5 10.59 242 -999
2008-11-24 08:45:50 51°13.317 2°51.322 241.5 10.59 242 -999
2008-11-24 08:46:00 51°13.302 2°51.281 241.5 10.5 241 -999
2008-11-24 08:46:10 51°13.289 2°51.245 241.5 10.5 241 -999
2008-11-24 08:46:20 51°13.273 2°51.2 241.5 10.5 241 -999
2008-11-24 08:46:30 51°13.259 2°51.161 241.5 10.5 241 -999
2008-11-24 08:46:40 51°13.245 2°51.12 241.5 10.5 241 -999
2008-11-24 08:46:50 51°13.23 2°51.081 241.5 10.5 241 -999
2008-11-24 08:47:00 51°13.216 2°51.04 241 10.5 242 -999
2008-11-24 08:47:10 51°13.202 2°50.999 241 10.5 242 -999
2008-11-24 08:47:20 51°13.188 2°50.958 241 10.5 242 -999
2008-11-24 08:47:30 51°13.174 2°50.919 241 10.5 242 -999
2008-11-24 08:47:40 51°13.16 2°50.879 241 10.5 242 -999
2008-11-24 08:47:50 51°13.146 2°50.839 241 10.5 242 -999
2008-11-24 08:48:00 51°13.132 2°50.799 240.6 10.4 244 -999
2008-11-24 08:48:10 51°13.118 2°50.758 240.6 10.4 244 -999
2008-11-24 08:48:20 51°13.104 2°50.718 240.6 10.4 244 -999
2008-11-24 08:48:30 51°13.089 2°50.674 240.6 10.4 244 -999
2008-11-24 08:48:40 51°13.076 2°50.638 240.6 10.4 244 -999
2008-11-24 08:48:50 51°13.062 2°50.598 240.6 10.4 244 -999
2008-11-24 08:49:00 51°13.048 2°50.558 242.5 10.5 239 -999
2008-11-24 08:49:10 51°13.033 2°50.513 242.5 10.5 239 -999
2008-11-24 08:49:20 51°13.021 2°50.477 242.5 10.5 239 -999
2008-11-24 08:49:30 51°13.007 2°50.437 242.5 10.5 239 -999
2008-11-24 08:49:40 51°12.994 2°50.396 242.5 10.5 239 -999
2008-11-24 08:49:50 51°12.981 2°50.355 242.5 10.5 239 -999
2008-11-24 08:50:00 51°12.967 2°50.314 242.1 10.5 240 -999
2008-11-24 08:50:10 51°12.952 2°50.274 242.1 10.5 240 -999
2008-11-24 08:50:20 51°12.939 2°50.233 242.1 10.5 240 -999
2008-11-24 08:50:30 51°12.926 2°50.192 242.1 10.5 240 -999
2008-11-24 08:50:40 51°12.912 2°50.151 242.1 10.5 240 -999
2008-11-24 08:50:50 51°12.899 2°50.114 242.1 10.5 240 -999
2008-11-24 08:51:00 51°12.884 2°50.069 241.9 10.69 241 -999
2008-11-24 08:51:10 51°12.872 2°50.032 241.9 10.69 241 -999
2008-11-24 08:51:20 51°12.856 2°49.987 241.9 10.69 241 -999
2008-11-24 08:51:30 51°12.842 2°49.947 241.9 10.69 241 -999
2008-11-24 08:51:40 51°12.825 2°49.903 241.9 10.69 241 -999
2008-11-24 08:51:50 51°12.812 2°49.867 241.9 10.69 241 -999
2008-11-24 08:52:00 51°12.798 2°49.826 241 10.5 243 -999
2008-11-24 08:52:10 51°12.785 2°49.785 241 10.5 243 -999
2008-11-24 08:52:20 51°12.772 2°49.75 241 10.5 243 -999
2008-11-24 08:52:30 51°12.756 2°49.703 241 10.5 243 -999
2008-11-24 08:52:40 51°12.743 2°49.667 241 10.5 243 -999
2008-11-24 08:52:50 51°12.73 2°49.626 241 10.5 243 -999
2008-11-24 08:53:00 51°12.716 2°49.587 241 10.3 241 -999
2008-11-24 08:53:10 51°12.701 2°49.543 241 10.3 241 -999
2008-11-24 08:53:20 51°12.688 2°49.507 241 10.3 241 -999
2008-11-24 08:53:30 51°12.676 2°49.466 241 10.3 241 -999
2008-11-24 08:53:40 51°12.662 2°49.425 241 10.3 241 -999
2008-11-24 08:53:50 51°12.649 2°49.385 241 10.3 241 -999
2008-11-24 08:54:00 51°12.635 2°49.345 241.5 10.4 240 -999
2008-11-24 08:54:10 51°12.621 2°49.304 241.5 10.4 240 -999
2008-11-24 08:54:20 51°12.608 2°49.264 241.5 10.4 240 -999
2008-11-24 08:54:30 51°12.594 2°49.224 241.5 10.4 240 -999
2008-11-24 08:54:40 51°12.58 2°49.185 241.5 10.4 240 -999
2008-11-24 08:54:50 51°12.565 2°49.14 241.5 10.4 240 -999
2008-11-24 08:55:00 51°12.551 2°49.1 241.6 10.4 239 -999
2008-11-24 08:55:10 51°12.539 2°49.064 241.6 10.4 239 -999
2008-11-24 08:55:20 51°12.525 2°49.023 241.6 10.4 239 -999
2008-11-24 08:55:30 51°12.511 2°48.982 241.6 10.4 239 -999
2008-11-24 08:55:40 51°12.497 2°48.942 241.6 10.4 239 -999
2008-11-24 08:55:50 51°12.483 2°48.902 241.6 10.4 239 -999
2008-11-24 08:56:00 51°12.47 2°48.861 242.4 10.3 239 -999
2008-11-24 08:56:10 51°12.455 2°48.817 242.4 10.3 239 -999
2008-11-24 08:56:20 51°12.443 2°48.781 242.4 10.3 239 -999
2008-11-24 08:56:30 51°12.429 2°48.74 242.4 10.3 239 -999
2008-11-24 08:56:40 51°12.416 2°48.7 242.4 10.3 239 -999
2008-11-24 08:56:50 51°12.4 2°48.656 242.4 10.3 239 -999
2008-11-24 08:57:00 51°12.387 2°48.62 241.5 10.59 241 -999
2008-11-24 08:57:10 51°12.374 2°48.579 241.5 10.59 241 -999
2008-11-24 08:57:20 51°12.36 2°48.539 241.5 10.59 241 -999
2008-11-24 08:57:30 51°12.347 2°48.499 241.5 10.59 241 -999
2008-11-24 08:57:40 51°12.333 2°48.459 241.5 10.59 241 -999
2008-11-24 08:57:50 51°12.32 2°48.418 241.5 10.59 241 -999
2008-11-24 08:58:00 51°12.305 2°48.379 241.8 10.09 237 -999
2008-11-24 08:58:10 51°12.292 2°48.339 241.8 10.09 237 -999
2008-11-24 08:58:20 51°12.279 2°48.3 241.8 10.09 237 -999
2008-11-24 08:58:30 51°12.266 2°48.26 241.8 10.09 237 -999
2008-11-24 08:58:40 51°12.252 2°48.221 241.8 10.09 237 -999
2008-11-24 08:58:50 51°12.239 2°48.182 241.8 10.09 237 -999
2008-11-24 08:59:00 51°12.225 2°48.141 241.1 10.09 244 -999
2008-11-24 08:59:10 51°12.211 2°48.098 241.1 10.09 244 -999
2008-11-24 08:59:20 51°12.198 2°48.062 241.1 10.09 244 -999
2008-11-24 08:59:30 51°12.184 2°48.022 241.1 10.09 244 -999
2008-11-24 08:59:40 51°12.17 2°47.983 241.1 10.09 244 -999
2008-11-24 08:59:50 51°12.157 2°47.943 241.1 10.09 244 -999
2008-11-24 09:00:00 51°12.143 2°47.902 241.8 10.5 243 -999
2008-11-24 09:00:10 51°12.129 2°47.861 241.8 10.5 243 -999
2008-11-24 09:00:20 51°12.114 2°47.816 241.8 10.5 243 -999
2008-11-24 09:00:30 51°12.101 2°47.78 241.8 10.5 243 -999
2008-11-24 09:00:40 51°12.087 2°47.739 241.8 10.5 243 -999
2008-11-24 09:00:50 51°12.072 2°47.696 241.8 10.5 243 -999
2008-11-24 09:01:00 51°12.061 2°47.66 242.6 10 237 -999
2008-11-24 09:01:10 51°12.048 2°47.621 242.6 10 237 -999
2008-11-24 09:01:20 51°12.035 2°47.581 242.6 10 237 -999
2008-11-24 09:01:30 51°12.025 2°47.535 242.6 10 237 -999
2008-11-24 09:01:40 51°12.017 2°47.496 242.6 10 237 -999
2008-11-24 09:01:50 51°12.011 2°47.452 242.6 10 237 -999
2008-11-24 09:02:00 51°12.004 2°47.403 256 10.19 260 -999
2008-11-24 09:02:10 51°11.999 2°47.359 256 10.19 260 -999
2008-11-24 09:02:20 51°11.993 2°47.319 256 10.19 260 -999
2008-11-24 09:02:30 51°11.989 2°47.275 256 10.19 260 -999
2008-11-24 09:02:40 51°11.985 2°47.226 256 10.19 260 -999
2008-11-24 09:02:50 51°11.981 2°47.186 256 10.19 260 -999
2008-11-24 09:03:00 51°11.977 2°47.141 259.1 10.09 260 -999
2008-11-24 09:03:10 51°11.973 2°47.097 259.1 10.09 260 -999
2008-11-24 09:03:20 51°11.969 2°47.052 259.1 10.09 260 -999
2008-11-24 09:03:30 51°11.963 2°47.007 259.1 10.09 260 -999
2008-11-24 09:03:40 51°11.958 2°46.963 259.1 10.09 260 -999
2008-11-24 09:03:50 51°11.954 2°46.918 259.1 10.09 260 -999
2008-11-24 09:04:00 51°11.949 2°46.874 258 10.09 259 -999
2008-11-24 09:04:10 51°11.943 2°46.83 258 10.09 259 -999
2008-11-24 09:04:20 51°11.937 2°46.786 258 10.09 259 -999
2008-11-24 09:04:30 51°11.933 2°46.742 258 10.09 259 -999
2008-11-24 09:04:40 51°11.928 2°46.697 258 10.09 259 -999
2008-11-24 09:04:50 51°11.924 2°46.653 258 10.09 259 -999
2008-11-24 09:05:00 51°11.919 2°46.604 257.6 10.3 262 -999
2008-11-24 09:05:10 51°11.914 2°46.559 257.6 10.3 262 -999
2008-11-24 09:05:20 51°11.91 2°46.519 257.6 10.3 262 -999
2008-11-24 09:05:30 51°11.905 2°46.474 257.6 10.3 262 -999
2008-11-24 09:05:40 51°11.9 2°46.425 257.6 10.3 262 -999
2008-11-24 09:05:50 51°11.895 2°46.386 257.6 10.3 262 -999
2008-11-24 09:06:00 51°11.89 2°46.341 256.8 10.3 260 -999
2008-11-24 09:06:10 51°11.885 2°46.297 256.8 10.3 260 -999
2008-11-24 09:06:20 51°11.879 2°46.254 256.8 10.3 260 -999
2008-11-24 09:06:30 51°11.874 2°46.21 256.8 10.3 260 -999
2008-11-24 09:06:40 51°11.869 2°46.167 256.8 10.3 260 -999
2008-11-24 09:06:50 51°11.863 2°46.119 256.8 10.3 260 -999
2008-11-24 09:07:00 51°11.858 2°46.081 257.6 9.69 256 -999
2008-11-24 09:07:10 51°11.852 2°46.035 257.6 9.69 256 -999
2008-11-24 09:07:20 51°11.848 2°45.996 257.6 9.69 256 -999
2008-11-24 09:07:30 51°11.844 2°45.952 257.6 9.69 256 -999
2008-11-24 09:07:40 51°11.839 2°45.908 257.6 9.69 256 -999
2008-11-24 09:07:50 51°11.835 2°45.863 257.6 9.69 256 -999
2008-11-24 09:08:00 51°11.832 2°45.818 259.6 10.19 261 -999
2008-11-24 09:08:10 51°11.829 2°45.774 259.6 10.19 261 -999
2008-11-24 09:08:20 51°11.826 2°45.729 259.6 10.19 261 -999
2008-11-24 09:08:30 51°11.823 2°45.684 259.6 10.19 261 -999
2008-11-24 09:08:40 51°11.82 2°45.638 259.6 10.19 261 -999
2008-11-24 09:08:50 51°11.817 2°45.593 259.6 10.19 261 -999
2008-11-24 09:09:00 51°11.813 2°45.547 260.6 10.4 264 -999
2008-11-24 09:09:10 51°11.81 2°45.503 260.6 10.4 264 -999
2008-11-24 09:09:20 51°11.807 2°45.458 260.6 10.4 264 -999
2008-11-24 09:09:30 51°11.805 2°45.413 260.6 10.4 264 -999
2008-11-24 09:09:40 51°11.803 2°45.369 260.6 10.4 264 -999
2008-11-24 09:09:50 51°11.801 2°45.325 260.6 10.4 264 -999
2008-11-24 09:10:00 51°11.799 2°45.28 262.3 9.8 265 -999
2008-11-24 09:10:10 51°11.797 2°45.239 262.3 9.8 265 -999
2008-11-24 09:10:20 51°11.795 2°45.197 262.3 9.8 265 -999
2008-11-24 09:10:30 51°11.793 2°45.154 262.3 9.8 265 -999
2008-11-24 09:10:40 51°11.792 2°45.111 262.3 9.8 265 -999
2008-11-24 09:10:50 51°11.79 2°45.066 262.3 9.8 265 -999
2008-11-24 09:11:00 51°11.788 2°45.022 262.8 10 268 -999
2008-11-24 09:11:10 51°11.786 2°44.979 262.8 10 268 -999
2008-11-24 09:11:20 51°11.784 2°44.936 262.8 10 268 -999
2008-11-24 09:11:30 51°11.782 2°44.893 262.8 10 268 -999
2008-11-24 09:11:40 51°11.781 2°44.85 262.8 10 268 -999
2008-11-24 09:11:50 51°11.78 2°44.807 262.8 10 268 -999
2008-11-24 09:12:00 51°11.777 2°44.763 262.8 9.9 266 -999
2008-11-24 09:12:10 51°11.776 2°44.719 262.8 9.9 266 -999
2008-11-24 09:12:20 51°11.773 2°44.675 262.8 9.9 266 -999
2008-11-24 09:12:30 51°11.771 2°44.63 262.8 9.9 266 -999
2008-11-24 09:12:40 51°11.769 2°44.585 262.8 9.9 266 -999
2008-11-24 09:12:50 51°11.767 2°44.54 262.8 9.9 266 -999
2008-11-24 09:13:00 51°11.765 2°44.495 262.8 10.4 266 -999
2008-11-24 09:13:10 51°11.763 2°44.449 262.8 10.4 266 -999
2008-11-24 09:13:20 51°11.761 2°44.404 262.8 10.4 266 -999
2008-11-24 09:13:30 51°11.759 2°44.358 262.8 10.4 266 -999
2008-11-24 09:13:40 51°11.756 2°44.315 262.8 10.4 266 -999
2008-11-24 09:13:50 51°11.755 2°44.271 262.8 10.4 266 -999
2008-11-24 09:14:00 51°11.751 2°44.229 262.3 9.9 265 -999
2008-11-24 09:14:10 51°11.749 2°44.185 262.3 9.9 265 -999
2008-11-24 09:14:20 51°11.747 2°44.141 262.3 9.9 265 -999
2008-11-24 09:14:30 51°11.745 2°44.096 262.3 9.9 265 -999
2008-11-24 09:14:40 51°11.742 2°44.052 262.3 9.9 265 -999
2008-11-24 09:14:50 51°11.74 2°44.008 262.3 9.9 265 -999
2008-11-24 09:15:00 51°11.737 2°43.964 261.8 10.09 263 -999
2008-11-24 09:15:10 51°11.734 2°43.92 261.8 10.09 263 -999
2008-11-24 09:15:20 51°11.731 2°43.878 261.8 10.09 263 -999
2008-11-24 09:15:30 51°11.729 2°43.834 261.8 10.09 263 -999
2008-11-24 09:15:40 51°11.727 2°43.79 261.8 10.09 263 -999
2008-11-24 09:15:50 51°11.724 2°43.748 261.8 10.09 263 -999
2008-11-24 09:16:00 51°11.721 2°43.706 262.3 9.8 263 -999
2008-11-24 09:16:10 51°11.719 2°43.662 262.3 9.8 263 -999
2008-11-24 09:16:20 51°11.716 2°43.618 262.3 9.8 263 -999
2008-11-24 09:16:30 51°11.714 2°43.575 262.3 9.8 263 -999
2008-11-24 09:16:40 51°11.712 2°43.53 262.3 9.8 263 -999
2008-11-24 09:16:50 51°11.71 2°43.486 262.3 9.8 263 -999
2008-11-24 09:17:00 51°11.708 2°43.442 262.5 10.09 265 -999
2008-11-24 09:17:10 51°11.705 2°43.397 262.5 10.09 265 -999
2008-11-24 09:17:20 51°11.701 2°43.353 262.5 10.09 265 -999
2008-11-24 09:17:30 51°11.697 2°43.308 262.5 10.09 265 -999
2008-11-24 09:17:40 51°11.692 2°43.263 262.5 10.09 265 -999
2008-11-24 09:17:50 51°11.686 2°43.22 262.5 10.09 265 -999
2008-11-24 09:18:00 51°11.681 2°43.175 256.5 10.09 261 -999
2008-11-24 09:18:10 51°11.675 2°43.132 256.5 10.09 261 -999
2008-11-24 09:18:20 51°11.671 2°43.088 256.5 10.09 261 -999
2008-11-24 09:18:30 51°11.666 2°43.044 256.5 10.09 261 -999
2008-11-24 09:18:40 51°11.661 2°43 256.5 10.09 261 -999
2008-11-24 09:18:50 51°11.655 2°42.955 256.5 10.09 261 -999
2008-11-24 09:19:00 51°11.648 2°42.912 254.6 10.19 254 -999
2008-11-24 09:19:10 51°11.641 2°42.869 254.6 10.19 254 -999
2008-11-24 09:19:20 51°11.634 2°42.825 254.6 10.19 254 -999
2008-11-24 09:19:30 51°11.626 2°42.783 254.6 10.19 254 -999
2008-11-24 09:19:40 51°11.619 2°42.74 254.6 10.19 254 -999
2008-11-24 09:19:50 51°11.612 2°42.697 254.6 10.19 254 -999
2008-11-24 09:20:00 51°11.604 2°42.654 251.5 10.09 255 -999
2008-11-24 09:20:10 51°11.597 2°42.611 251.5 10.09 255 -999
2008-11-24 09:20:20 51°11.59 2°42.567 251.5 10.09 255 -999
2008-11-24 09:20:30 51°11.583 2°42.523 251.5 10.09 255 -999
2008-11-24 09:20:40 51°11.573 2°42.482 251.5 10.09 255 -999
2008-11-24 09:20:50 51°11.564 2°42.44 251.5 10.09 255 -999
2008-11-24 09:21:00 51°11.554 2°42.397 247.5 9.9 250 -999
2008-11-24 09:21:10 51°11.542 2°42.357 247.5 9.9 250 -999
2008-11-24 09:21:20 51°11.532 2°42.315 247.5 9.9 250 -999
2008-11-24 09:21:30 51°11.521 2°42.274 247.5 9.9 250 -999
2008-11-24 09:21:40 51°11.51 2°42.232 247.5 9.9 250 -999
2008-11-24 09:21:50 51°11.499 2°42.191 247.5 9.9 250 -999
2008-11-24 09:22:00 51°11.484 2°42.151 240.9 10.19 239 -999
2008-11-24 09:22:10 51°11.468 2°42.114 240.9 10.19 239 -999
2008-11-24 09:22:20 51°11.451 2°42.077 240.9 10.19 239 -999
2008-11-24 09:22:30 51°11.434 2°42.041 240.9 10.19 239 -999
2008-11-24 09:22:40 51°11.416 2°42.005 240.9 10.19 239 -999
2008-11-24 09:22:50 51°11.398 2°41.969 240.9 10.19 239 -999
2008-11-24 09:23:00 51°11.381 2°41.932 233.8 10.5 232 -999
2008-11-24 09:23:10 51°11.362 2°41.896 233.8 10.5 232 -999
2008-11-24 09:23:20 51°11.345 2°41.86 233.8 10.5 232 -999
2008-11-24 09:23:30 51°11.329 2°41.822 233.8 10.5 232 -999
2008-11-24 09:23:40 51°11.312 2°41.785 233.8 10.5 232 -999
2008-11-24 09:23:50 51°11.296 2°41.747 233.8 10.5 232 -999
2008-11-24 09:24:00 51°11.28 2°41.709 235.4 10.4 238 -999
2008-11-24 09:24:10 51°11.264 2°41.671 235.4 10.4 238 -999
2008-11-24 09:24:20 51°11.248 2°41.633 235.4 10.4 238 -999
2008-11-24 09:24:30 51°11.231 2°41.596 235.4 10.4 238 -999
2008-11-24 09:24:40 51°11.215 2°41.559 235.4 10.4 238 -999
2008-11-24 09:24:50 51°11.198 2°41.521 235.4 10.4 238 -999
2008-11-24 09:25:00 51°11.182 2°41.483 236.5 10.4 234 -999
2008-11-24 09:25:10 51°11.167 2°41.444 236.5 10.4 234 -999
2008-11-24 09:25:20 51°11.151 2°41.406 236.5 10.4 234 -999
2008-11-24 09:25:30 51°11.136 2°41.368 236.5 10.4 234 -999
2008-11-24 09:25:40 51°11.12 2°41.329 236.5 10.4 234 -999
2008-11-24 09:25:50 51°11.104 2°41.292 236.5 10.4 234 -999
2008-11-24 09:26:00 51°11.088 2°41.255 237.4 10.09 235 -999
2008-11-24 09:26:10 51°11.071 2°41.219 237.4 10.09 235 -999
2008-11-24 09:26:20 51°11.056 2°41.181 237.4 10.09 235 -999
2008-11-24 09:26:30 51°11.041 2°41.144 237.4 10.09 235 -999
2008-11-24 09:26:40 51°11.025 2°41.106 237.4 10.09 235 -999
2008-11-24 09:26:50 51°11.009 2°41.07 237.4 10.09 235 -999
2008-11-24 09:27:00 51°10.993 2°41.033 238.5 10.3 231 -999
2008-11-24 09:27:10 51°10.979 2°40.995 238.5 10.3 231 -999
2008-11-24 09:27:20 51°10.962 2°40.958 238.5 10.3 231 -999
2008-11-24 09:27:30 51°10.947 2°40.92 238.5 10.3 231 -999
2008-11-24 09:27:40 51°10.931 2°40.883 238.5 10.3 231 -999
2008-11-24 09:27:50 51°10.914 2°40.848 238.5 10.3 231 -999
2008-11-24 09:28:00 51°10.899 2°40.811 237.5 10.3 233 -999
2008-11-24 09:28:10 51°10.884 2°40.772 237.5 10.3 233 -999
2008-11-24 09:28:20 51°10.869 2°40.734 237.5 10.3 233 -999
2008-11-24 09:28:30 51°10.853 2°40.697 237.5 10.3 233 -999
2008-11-24 09:28:40 51°10.837 2°40.659 237.5 10.3 233 -999
2008-11-24 09:28:50 51°10.822 2°40.62 237.5 10.3 233 -999
2008-11-24 09:29:00 51°10.807 2°40.581 237 10.4 243 -999
2008-11-24 09:29:10 51°10.791 2°40.543 237 10.4 243 -999
2008-11-24 09:29:20 51°10.776 2°40.505 237 10.4 243 -999
2008-11-24 09:29:30 51°10.76 2°40.468 237 10.4 243 -999
2008-11-24 09:29:40 51°10.744 2°40.432 237 10.4 243 -999
2008-11-24 09:29:50 51°10.729 2°40.395 237 10.4 243 -999
2008-11-24 09:30:00 51°10.713 2°40.359 237 10.09 233 -999
2008-11-24 09:30:10 51°10.697 2°40.322 237 10.09 233 -999
2008-11-24 09:30:20 51°10.682 2°40.283 237 10.09 233 -999
2008-11-24 09:30:30 51°10.666 2°40.246 237 10.09 233 -999
2008-11-24 09:30:40 51°10.65 2°40.209 237 10.09 233 -999
2008-11-24 09:30:50 51°10.634 2°40.172 237 10.09 233 -999
2008-11-24 09:31:00 51°10.617 2°40.134 235.4 10.3 236 -999
2008-11-24 09:31:10 51°10.602 2°40.096 235.4 10.3 236 -999
2008-11-24 09:31:20 51°10.585 2°40.06 235.4 10.3 236 -999
2008-11-24 09:31:30 51°10.569 2°40.022 235.4 10.3 236 -999
2008-11-24 09:31:40 51°10.554 2°39.983 235.4 10.3 236 -999
2008-11-24 09:31:50 51°10.537 2°39.945 235.4 10.3 236 -999
2008-11-24 09:32:00 51°10.52 2°39.909 236.8 10.5 228 -999
2008-11-24 09:32:10 51°10.505 2°39.87 236.8 10.5 228 -999
2008-11-24 09:32:20 51°10.489 2°39.832 236.8 10.5 228 -999
2008-11-24 09:32:30 51°10.475 2°39.794 236.8 10.5 228 -999
2008-11-24 09:32:40 51°10.461 2°39.756 236.8 10.5 228 -999
2008-11-24 09:32:50 51°10.447 2°39.717 236.8 10.5 228 -999
2008-11-24 09:33:00 51°10.432 2°39.678 238 10.3 243 -999
2008-11-24 09:33:10 51°10.418 2°39.64 238 10.3 243 -999
2008-11-24 09:33:20 51°10.404 2°39.601 238 10.3 243 -999
2008-11-24 09:33:30 51°10.389 2°39.562 238 10.3 243 -999
2008-11-24 09:33:40 51°10.375 2°39.524 238 10.3 243 -999
2008-11-24 09:33:50 51°10.361 2°39.484 238 10.3 243 -999
2008-11-24 09:34:00 51°10.346 2°39.445 237.9 10.09 247 -999
2008-11-24 09:34:10 51°10.332 2°39.408 237.9 10.09 247 -999
2008-11-24 09:34:20 51°10.316 2°39.37 237.9 10.09 247 -999
2008-11-24 09:34:30 51°10.301 2°39.332 237.9 10.09 247 -999
2008-11-24 09:34:40 51°10.287 2°39.293 237.9 10.09 247 -999
2008-11-24 09:34:50 51°10.272 2°39.254 237.9 10.09 247 -999
2008-11-24 09:35:00 51°10.258 2°39.215 239.5 10.09 242 -999
2008-11-24 09:35:10 51°10.244 2°39.175 239.5 10.09 242 -999
2008-11-24 09:35:20 51°10.23 2°39.137 239.5 10.09 242 -999
2008-11-24 09:35:30 51°10.214 2°39.098 239.5 10.09 242 -999
2008-11-24 09:35:40 51°10.199 2°39.059 239.5 10.09 242 -999
2008-11-24 09:35:50 51°10.184 2°39.02 239.5 10.09 242 -999
2008-11-24 09:36:00 51°10.169 2°38.981 238.8 10.19 237 -999
2008-11-24 09:36:10 51°10.154 2°38.943 238.8 10.19 237 -999
2008-11-24 09:36:20 51°10.139 2°38.904 238.8 10.19 237 -999
2008-11-24 09:36:30 51°10.125 2°38.865 238.8 10.19 237 -999
2008-11-24 09:36:40 51°10.111 2°38.826 238.8 10.19 237 -999
2008-11-24 09:36:50 51°10.097 2°38.786 238.8 10.19 237 -999
2008-11-24 09:37:00 51°10.083 2°38.747 240.9 10.3 239 -999
2008-11-24 09:37:10 51°10.069 2°38.707 240.9 10.3 239 -999
2008-11-24 09:37:20 51°10.055 2°38.667 240.9 10.3 239 -999
2008-11-24 09:37:30 51°10.042 2°38.627 240.9 10.3 239 -999
2008-11-24 09:37:40 51°10.028 2°38.588 240.9 10.3 239 -999
2008-11-24 09:37:50 51°10.015 2°38.547 240.9 10.3 239 -999
2008-11-24 09:38:00 51°10.002 2°38.507 242.9 10.4 240 -999
2008-11-24 09:38:10 51°9.988 2°38.466 242.9 10.4 240 -999
2008-11-24 09:38:20 51°9.975 2°38.425 242.9 10.4 240 -999
2008-11-24 09:38:30 51°9.962 2°38.384 242.9 10.4 240 -999
2008-11-24 09:38:40 51°9.948 2°38.344 242.9 10.4 240 -999
2008-11-24 09:38:50 51°9.934 2°38.305 242.9 10.4 240 -999
2008-11-24 09:39:00 51°9.92 2°38.266 243.8 10.4 233 -999
2008-11-24 09:39:10 51°9.907 2°38.226 243.8 10.4 233 -999
2008-11-24 09:39:20 51°9.894 2°38.186 243.8 10.4 233 -999
2008-11-24 09:39:30 51°9.879 2°38.147 243.8 10.4 233 -999
2008-11-24 09:39:40 51°9.865 2°38.108 243.8 10.4 233 -999
2008-11-24 09:39:50 51°9.851 2°38.069 243.8 10.4 233 -999
2008-11-24 09:40:00 51°9.836 2°38.03 240 10.3 240 -999
2008-11-24 09:40:10 51°9.822 2°37.99 240 10.3 240 -999
2008-11-24 09:40:20 51°9.807 2°37.952 240 10.3 240 -999
2008-11-24 09:40:30 51°9.792 2°37.913 240 10.3 240 -999
2008-11-24 09:40:40 51°9.777 2°37.874 240 10.3 240 -999
2008-11-24 09:40:50 51°9.763 2°37.835 240 10.3 240 -999
2008-11-24 09:41:00 51°9.75 2°37.795 240 10.3 247 -999
2008-11-24 09:41:10 51°9.735 2°37.755 240 10.3 247 -999
2008-11-24 09:41:20 51°9.721 2°37.715 240 10.3 247 -999
2008-11-24 09:41:30 51°9.707 2°37.676 240 10.3 247 -999
2008-11-24 09:41:40 51°9.692 2°37.636 240 10.3 247 -999
2008-11-24 09:41:50 51°9.677 2°37.597 240 10.3 247 -999
2008-11-24 09:42:00 51°9.663 2°37.557 240 10.4 242 -999
2008-11-24 09:42:10 51°9.649 2°37.519 240 10.4 242 -999
2008-11-24 09:42:20 51°9.635 2°37.48 240 10.4 242 -999
2008-11-24 09:42:30 51°9.62 2°37.441 240 10.4 242 -999
2008-11-24 09:42:40 51°9.605 2°37.403 240 10.4 242 -999
2008-11-24 09:42:50 51°9.59 2°37.364 240 10.4 242 -999
2008-11-24 09:43:00 51°9.576 2°37.325 240.8 10.19 236 -999
2008-11-24 09:43:10 51°9.561 2°37.286 240.8 10.19 236 -999
2008-11-24 09:43:20 51°9.546 2°37.25 240.8 10.19 236 -999
2008-11-24 09:43:30 51°9.532 2°37.211 240.8 10.19 236 -999
2008-11-24 09:43:40 51°9.518 2°37.173 240.8 10.19 236 -999
2008-11-24 09:43:50 51°9.504 2°37.135 240.8 10.19 236 -999
2008-11-24 09:44:00 51°9.49 2°37.097 240 10.09 239 -999
2008-11-24 09:44:10 51°9.475 2°37.058 240 10.09 239 -999
2008-11-24 09:44:20 51°9.462 2°37.021 240 10.09 239 -999
2008-11-24 09:44:30 51°9.451 2°36.99 240 10.09 239 -999
2008-11-24 09:44:40 51°9.441 2°36.964 240 10.09 239 -999
2008-11-24 09:44:50 51°9.434 2°36.944 240 10.09 239 -999
2008-11-24 09:45:00 51°9.428 2°36.927 245.3 4.09 246 -999
2008-11-24 09:45:10 51°9.425 2°36.914 245.3 4.09 246 -999
2008-11-24 09:45:20 51°9.422 2°36.903 245.3 4.09 246 -999
2008-11-24 09:45:30 51°9.421 2°36.894 245.3 4.09 246 -999
2008-11-24 09:45:40 51°9.42 2°36.888 245.3 4.09 246 -999
2008-11-24 09:45:50 51°9.419 2°36.883 245.3 4.09 246 -999
2008-11-24 09:46:00 51°9.418 2°36.88 259.3 0.69 247 -999
2008-11-24 09:46:10 51°9.417 2°36.878 259.3 0.69 247 -999
2008-11-24 09:46:20 51°9.417 2°36.876 259.3 0.69 247 -999
2008-11-24 09:46:30 51°9.416 2°36.875 259.3 0.69 247 -999
2008-11-24 09:46:40 51°9.415 2°36.876 259.3 0.69 247 -999
2008-11-24 09:46:50 51°9.413 2°36.877 259.3 0.69 247 -999
2008-11-24 09:47:00 51°9.412 2°36.878 246 0.9 162 -999
2008-11-24 09:47:10 51°9.41 2°36.879 246 0.9 162 -999
2008-11-24 09:47:20 51°9.408 2°36.88 246 0.9 162 -999
2008-11-24 09:47:30 51°9.406 2°36.883 246 0.9 162 -999
2008-11-24 09:47:40 51°9.403 2°36.884 246 0.9 162 -999
2008-11-24 09:47:50 51°9.4 2°36.887 246 0.9 162 -999
2008-11-24 09:48:00 51°9.396 2°36.886 225.4 1.69 196 -999
2008-11-24 09:48:10 51°9.39 2°36.882 225.4 1.69 196 -999
2008-11-24 09:48:20 51°9.383 2°36.876 225.4 1.69 196 -999
2008-11-24 09:48:30 51°9.376 2°36.869 225.4 1.69 196 -999
2008-11-24 09:48:40 51°9.37 2°36.861 225.4 1.69 196 -999
2008-11-24 09:48:50 51°9.364 2°36.854 225.4 1.69 196 -999
2008-11-24 09:49:00 51°9.359 2°36.846 235.9 2.7 223 -999
2008-11-24 09:49:10 51°9.353 2°36.837 235.9 2.7 223 -999
2008-11-24 09:49:20 51°9.348 2°36.828 235.9 2.7 223 -999
2008-11-24 09:49:30 51°9.343 2°36.818 235.9 2.7 223 -999
2008-11-24 09:49:40 51°9.338 2°36.808 235.9 2.7 223 -999
2008-11-24 09:49:50 51°9.334 2°36.798 235.9 2.7 223 -999
2008-11-24 09:50:00 51°9.33 2°36.788 248 2.6 239 -999
2008-11-24 09:50:10 51°9.327 2°36.778 248 2.6 239 -999
2008-11-24 09:50:20 51°9.324 2°36.768 248 2.6 239 -999
2008-11-24 09:50:30 51°9.321 2°36.758 248 2.6 239 -999
2008-11-24 09:50:40 51°9.319 2°36.749 248 2.6 239 -999
2008-11-24 09:50:50 51°9.317 2°36.74 248 2.6 239 -999
2008-11-24 09:51:00 51°9.314 2°36.732 254.5 2 249 -999
2008-11-24 09:51:10 51°9.312 2°36.723 254.5 2 249 -999
2008-11-24 09:51:20 51°9.31 2°36.715 254.5 2 249 -999
2008-11-24 09:51:30 51°9.308 2°36.707 254.5 2 249 -999
2008-11-24 09:51:40 51°9.306 2°36.699 254.5 2 249 -999
2008-11-24 09:51:50 51°9.305 2°36.69 254.5 2 249 -999
2008-11-24 09:52:00 51°9.303 2°36.682 259.1 1.89 247 -999
2008-11-24 09:52:10 51°9.302 2°36.674 259.1 1.89 247 -999
2008-11-24 09:52:20 51°9.3 2°36.666 259.1 1.89 247 -999
2008-11-24 09:52:30 51°9.297 2°36.658 259.1 1.89 247 -999
2008-11-24 09:52:40 51°9.295 2°36.651 259.1 1.89 247 -999
2008-11-24 09:52:50 51°9.292 2°36.643 259.1 1.89 247 -999
2008-11-24 09:53:00 51°9.289 2°36.635 247.6 2.1 230 -999
2008-11-24 09:53:10 51°9.285 2°36.626 247.6 2.1 230 -999
2008-11-24 09:53:20 51°9.281 2°36.619 247.6 2.1 230 -999
2008-11-24 09:53:30 51°9.277 2°36.61 247.6 2.1 230 -999
2008-11-24 09:53:40 51°9.273 2°36.602 247.6 2.1 230 -999
2008-11-24 09:53:50 51°9.268 2°36.594 247.6 2.1 230 -999
2008-11-24 09:54:00 51°9.264 2°36.585 243.6 2.5 233 -999
2008-11-24 09:54:10 51°9.26 2°36.576 243.6 2.5 233 -999
2008-11-24 09:54:20 51°9.255 2°36.569 243.6 2.5 233 -999
2008-11-24 09:54:30 51°9.252 2°36.56 243.6 2.5 233 -999
2008-11-24 09:54:40 51°9.247 2°36.552 243.6 2.5 233 -999
2008-11-24 09:54:50 51°9.243 2°36.544 243.6 2.5 233 -999
2008-11-24 09:55:00 51°9.239 2°36.536 242 2.2 228 -999
2008-11-24 09:55:10 51°9.235 2°36.529 242 2.2 228 -999
2008-11-24 09:55:20 51°9.232 2°36.521 242 2.2 228 -999
2008-11-24 09:55:30 51°9.228 2°36.514 242 2.2 228 -999
2008-11-24 09:55:40 51°9.225 2°36.508 242 2.2 228 -999
2008-11-24 09:55:50 51°9.222 2°36.501 242 2.2 228 -999
2008-11-24 09:56:00 51°9.218 2°36.495 243.1 2 229 -999
2008-11-24 09:56:10 51°9.214 2°36.489 243.1 2 229 -999
2008-11-24 09:56:20 51°9.21 2°36.483 243.1 2 229 -999
2008-11-24 09:56:30 51°9.207 2°36.476 243.1 2 229 -999
2008-11-24 09:56:40 51°9.203 2°36.469 243.1 2 229 -999
2008-11-24 09:56:50 51°9.199 2°36.461 243.1 2 229 -999
2008-11-24 09:57:00 51°9.195 2°36.453 243.4 2.2 228 -999
2008-11-24 09:57:10 51°9.191 2°36.446 243.4 2.2 228 -999
2008-11-24 09:57:20 51°9.186 2°36.439 243.4 2.2 228 -999
2008-11-24 09:57:30 51°9.181 2°36.432 243.4 2.2 228 -999
2008-11-24 09:57:40 51°9.177 2°36.425 243.4 2.2 228 -999
2008-11-24 09:57:50 51°9.173 2°36.417 243.4 2.2 228 -999
2008-11-24 09:58:00 51°9.168 2°36.41 242.3 2.2 227 -999
2008-11-24 09:58:10 51°9.164 2°36.403 242.3 2.2 227 -999
2008-11-24 09:58:20 51°9.16 2°36.396 242.3 2.2 227 -999
2008-11-24 09:58:30 51°9.156 2°36.389 242.3 2.2 227 -999
2008-11-24 09:58:40 51°9.152 2°36.381 242.3 2.2 227 -999
2008-11-24 09:58:50 51°9.148 2°36.373 242.3 2.2 227 -999
2008-11-24 09:59:00 51°9.144 2°36.364 243.8 2.5 237 -999
2008-11-24 09:59:10 51°9.14 2°36.356 243.8 2.5 237 -999
2008-11-24 09:59:20 51°9.136 2°36.347 243.8 2.5 237 -999
2008-11-24 09:59:30 51°9.132 2°36.339 243.8 2.5 237 -999
2008-11-24 09:59:40 51°9.128 2°36.331 243.8 2.5 237 -999
2008-11-24 09:59:50 51°9.125 2°36.323 243.8 2.5 237 -999
2008-11-24 10:00:00 51°9.122 2°36.316 246 2.2 236 -999
2008-11-24 10:00:10 51°9.118 2°36.308 246 2.2 236 -999
2008-11-24 10:00:20 51°9.115 2°36.299 246 2.2 236 -999
2008-11-24 10:00:30 51°9.113 2°36.291 246 2.2 236 -999
2008-11-24 10:00:40 51°9.11 2°36.282 246 2.2 236 -999
2008-11-24 10:00:50 51°9.107 2°36.273 246 2.2 236 -999
2008-11-24 10:01:00 51°9.105 2°36.264 253.9 2.29 243 -999
2008-11-24 10:01:10 51°9.102 2°36.255 253.9 2.29 243 -999
2008-11-24 10:01:20 51°9.1 2°36.245 253.9 2.29 243 -999
2008-11-24 10:01:30 51°9.098 2°36.235 253.9 2.29 243 -999
2008-11-24 10:01:40 51°9.097 2°36.225 253.9 2.29 243 -999
2008-11-24 10:01:50 51°9.095 2°36.215 253.9 2.29 243 -999
2008-11-24 10:02:00 51°9.093 2°36.205 257.1 2.2 257 -999
2008-11-24 10:02:10 51°9.091 2°36.196 257.1 2.2 257 -999
2008-11-24 10:02:20 51°9.088 2°36.187 257.1 2.2 257 -999
2008-11-24 10:02:30 51°9.087 2°36.177 257.1 2.2 257 -999
2008-11-24 10:02:40 51°9.085 2°36.169 257.1 2.2 257 -999
2008-11-24 10:02:50 51°9.082 2°36.161 257.1 2.2 257 -999
2008-11-24 10:03:00 51°9.08 2°36.153 253.9 2.1 250 -999
2008-11-24 10:03:10 51°9.078 2°36.145 253.9 2.1 250 -999
2008-11-24 10:03:20 51°9.076 2°36.137 253.9 2.1 250 -999
2008-11-24 10:03:30 51°9.074 2°36.128 253.9 2.1 250 -999
2008-11-24 10:03:40 51°9.071 2°36.12 253.9 2.1 250 -999
2008-11-24 10:03:50 51°9.07 2°36.111 253.9 2.1 250 -999
2008-11-24 10:04:00 51°9.067 2°36.103 253.9 2.1 240 -999
2008-11-24 10:04:10 51°9.066 2°36.094 253.9 2.1 240 -999
2008-11-24 10:04:20 51°9.064 2°36.085 253.9 2.1 240 -999
2008-11-24 10:04:30 51°9.062 2°36.076 253.9 2.1 240 -999
2008-11-24 10:04:40 51°9.06 2°36.068 253.9 2.1 240 -999
2008-11-24 10:04:50 51°9.058 2°36.059 253.9 2.1 240 -999
2008-11-24 10:05:00 51°9.056 2°36.05 255.6 2.1 248 -999
2008-11-24 10:05:10 51°9.054 2°36.041 255.6 2.1 248 -999
2008-11-24 10:05:20 51°9.052 2°36.032 255.6 2.1 248 -999
2008-11-24 10:05:30 51°9.051 2°36.023 255.6 2.1 248 -999
2008-11-24 10:05:40 51°9.049 2°36.013 255.6 2.1 248 -999
2008-11-24 10:05:50 51°9.047 2°36.004 255.6 2.1 248 -999
2008-11-24 10:06:00 51°9.045 2°35.994 253.4 2.29 254 -999
2008-11-24 10:06:10 51°9.042 2°35.985 253.4 2.29 254 -999
2008-11-24 10:06:20 51°9.04 2°35.975 253.4 2.29 254 -999
2008-11-24 10:06:30 51°9.037 2°35.965 253.4 2.29 254 -999
2008-11-24 10:06:40 51°9.035 2°35.955 253.4 2.29 254 -999
2008-11-24 10:06:50 51°9.033 2°35.946 253.4 2.29 254 -999
2008-11-24 10:07:00 51°9.03 2°35.937 254.5 2.1 249 -999
2008-11-24 10:07:10 51°9.028 2°35.928 254.5 2.1 249 -999
2008-11-24 10:07:20 51°9.026 2°35.919 254.5 2.1 249 -999
2008-11-24 10:07:30 51°9.024 2°35.91 254.5 2.1 249 -999
2008-11-24 10:07:40 51°9.021 2°35.901 254.5 2.1 249 -999
2008-11-24 10:07:50 51°9.019 2°35.891 254.5 2.1 249 -999
2008-11-24 10:08:00 51°9.017 2°35.882 254.1 2.2 250 -999
2008-11-24 10:08:10 51°9.014 2°35.874 254.1 2.2 250 -999
2008-11-24 10:08:20 51°9.011 2°35.865 254.1 2.2 250 -999
2008-11-24 10:08:30 51°9.009 2°35.855 254.1 2.2 250 -999
2008-11-24 10:08:40 51°9.007 2°35.846 254.1 2.2 250 -999
2008-11-24 10:08:50 51°9.004 2°35.837 254.1 2.2 250 -999
2008-11-24 10:09:00 51°9.003 2°35.827 256.3 2.29 259 -999
2008-11-24 10:09:10 51°9 2°35.818 256.3 2.29 259 -999
2008-11-24 10:09:20 51°8.998 2°35.808 256.3 2.29 259 -999
2008-11-24 10:09:30 51°8.997 2°35.799 256.3 2.29 259 -999
2008-11-24 10:09:40 51°8.995 2°35.789 256.3 2.29 259 -999
2008-11-24 10:09:50 51°8.992 2°35.78 256.3 2.29 259 -999
2008-11-24 10:10:00 51°8.99 2°35.771 253 2.2 249 -999
2008-11-24 10:10:10 51°8.987 2°35.762 253 2.2 249 -999
2008-11-24 10:10:20 51°8.985 2°35.752 253 2.2 249 -999
2008-11-24 10:10:30 51°8.983 2°35.743 253 2.2 249 -999
2008-11-24 10:10:40 51°8.981 2°35.733 253 2.2 249 -999
2008-11-24 10:10:50 51°8.978 2°35.724 253 2.2 249 -999
2008-11-24 10:11:00 51°8.975 2°35.715 251.3 2.29 243 -999
2008-11-24 10:11:10 51°8.973 2°35.706 251.3 2.29 243 -999
2008-11-24 10:11:20 51°8.97 2°35.697 251.3 2.29 243 -999
2008-11-24 10:11:30 51°8.968 2°35.688 251.3 2.29 243 -999
2008-11-24 10:11:40 51°8.966 2°35.678 251.3 2.29 243 -999
2008-11-24 10:11:50 51°8.963 2°35.669 251.3 2.29 243 -999
2008-11-24 10:12:00 51°8.961 2°35.66 253 2.2 248 -999
2008-11-24 10:12:10 51°8.958 2°35.65 253 2.2 248 -999
2008-11-24 10:12:20 51°8.956 2°35.641 253 2.2 248 -999
2008-11-24 10:12:30 51°8.953 2°35.632 253 2.2 248 -999
2008-11-24 10:12:40 51°8.951 2°35.623 253 2.2 248 -999
2008-11-24 10:12:50 51°8.948 2°35.615 253 2.2 248 -999
2008-11-24 10:13:00 51°8.945 2°35.606 251.3 2.29 243 -999
2008-11-24 10:13:10 51°8.943 2°35.597 251.3 2.29 243 -999
2008-11-24 10:13:20 51°8.94 2°35.587 251.3 2.29 243 -999
2008-11-24 10:13:30 51°8.938 2°35.577 251.3 2.29 243 -999
2008-11-24 10:13:40 51°8.936 2°35.568 251.3 2.29 243 -999
2008-11-24 10:13:50 51°8.933 2°35.559 251.3 2.29 243 -999
2008-11-24 10:14:00 51°8.931 2°35.55 253.5 2.2 251 -999
2008-11-24 10:14:10 51°8.929 2°35.541 253.5 2.2 251 -999
2008-11-24 10:14:20 51°8.927 2°35.532 253.5 2.2 251 -999
2008-11-24 10:14:30 51°8.924 2°35.523 253.5 2.2 251 -999
2008-11-24 10:14:40 51°8.921 2°35.515 253.5 2.2 251 -999
2008-11-24 10:14:50 51°8.919 2°35.507 253.5 2.2 251 -999
2008-11-24 10:15:00 51°8.916 2°35.499 251.8 2.1 243 -999
2008-11-24 10:15:10 51°8.914 2°35.491 251.8 2.1 243 -999
2008-11-24 10:15:20 51°8.911 2°35.482 251.8 2.1 243 -999
2008-11-24 10:15:30 51°8.908 2°35.474 251.8 2.1 243 -999
2008-11-24 10:15:40 51°8.906 2°35.465 251.8 2.1 243 -999
2008-11-24 10:15:50 51°8.903 2°35.457 251.8 2.1 243 -999
2008-11-24 10:16:00 51°8.9 2°35.449 250.5 2.1 244 -999
2008-11-24 10:16:10 51°8.898 2°35.44 250.5 2.1 244 -999
2008-11-24 10:16:20 51°8.895 2°35.432 250.5 2.1 244 -999
2008-11-24 10:16:30 51°8.892 2°35.423 250.5 2.1 244 -999
2008-11-24 10:16:40 51°8.89 2°35.414 250.5 2.1 244 -999
2008-11-24 10:16:50 51°8.887 2°35.405 250.5 2.1 244 -999
2008-11-24 10:17:00 51°8.884 2°35.397 252.1 2.2 239 -999
2008-11-24 10:17:10 51°8.882 2°35.388 252.1 2.2 239 -999
2008-11-24 10:17:20 51°8.879 2°35.379 252.1 2.2 239 -999
2008-11-24 10:17:30 51°8.877 2°35.37 252.1 2.2 239 -999
2008-11-24 10:17:40 51°8.874 2°35.361 252.1 2.2 239 -999
2008-11-24 10:17:50 51°8.872 2°35.352 252.1 2.2 239 -999
2008-11-24 10:18:00 51°8.87 2°35.343 253.5 2.2 247 -999
2008-11-24 10:18:10 51°8.867 2°35.334 253.5 2.2 247 -999
2008-11-24 10:18:20 51°8.865 2°35.325 253.5 2.2 247 -999
2008-11-24 10:18:30 51°8.862 2°35.315 253.5 2.2 247 -999
2008-11-24 10:18:40 51°8.86 2°35.307 253.5 2.2 247 -999
2008-11-24 10:18:50 51°8.858 2°35.298 253.5 2.2 247 -999
2008-11-24 10:19:00 51°8.856 2°35.289 253.5 2.1 252 -999
2008-11-24 10:19:10 51°8.853 2°35.281 253.5 2.1 252 -999
2008-11-24 10:19:20 51°8.851 2°35.271 253.5 2.1 252 -999
2008-11-24 10:19:30 51°8.848 2°35.262 253.5 2.1 252 -999
2008-11-24 10:19:40 51°8.846 2°35.253 253.5 2.1 252 -999
2008-11-24 10:19:50 51°8.844 2°35.244 253.5 2.1 252 -999
2008-11-24 10:20:00 51°8.842 2°35.234 255 2.29 251 -999
2008-11-24 10:20:10 51°8.84 2°35.225 255 2.29 251 -999
2008-11-24 10:20:20 51°8.838 2°35.216 255 2.29 251 -999
2008-11-24 10:20:30 51°8.836 2°35.206 255 2.29 251 -999
2008-11-24 10:20:40 51°8.835 2°35.196 255 2.29 251 -999
2008-11-24 10:20:50 51°8.833 2°35.187 255 2.29 251 -999
2008-11-24 10:21:00 51°8.832 2°35.178 258.8 2.2 255 -999
2008-11-24 10:21:10 51°8.83 2°35.169 258.8 2.2 255 -999
2008-11-24 10:21:20 51°8.829 2°35.16 258.8 2.2 255 -999
2008-11-24 10:21:30 51°8.829 2°35.153 258.8 2.2 255 -999
2008-11-24 10:21:40 51°8.828 2°35.146 258.8 2.2 255 -999
2008-11-24 10:21:50 51°8.828 2°35.142 258.8 2.2 255 -999
2008-11-24 10:22:00 51°8.827 2°35.138 265.6 0.9 250 -999
2008-11-24 10:22:10 51°8.827 2°35.134 265.6 0.9 250 -999
2008-11-24 10:22:20 51°8.826 2°35.13 265.6 0.9 250 -999
2008-11-24 10:22:30 51°8.826 2°35.127 265.6 0.9 250 -999
2008-11-24 10:22:40 51°8.826 2°35.124 265.6 0.9 250 -999
2008-11-24 10:22:50 51°8.826 2°35.121 265.6 0.9 250 -999
2008-11-24 10:23:00 51°8.825 2°35.12 272.3 0.2 276 -999
2008-11-24 10:23:10 51°8.825 2°35.119 272.3 0.2 276 -999
2008-11-24 10:23:20 51°8.825 2°35.119 272.3 0.2 276 -999
2008-11-24 10:23:30 51°8.825 2°35.12 272.3 0.2 276 -999
2008-11-24 10:23:40 51°8.825 2°35.121 272.3 0.2 276 -999
2008-11-24 10:23:50 51°8.825 2°35.123 272.3 0.2 276 -999
2008-11-24 10:24:00 51°8.825 2°35.124 289.5 0.4 106 -999
2008-11-24 10:24:10 51°8.825 2°35.127 289.5 0.4 106 -999
2008-11-24 10:24:20 51°8.824 2°35.129 289.5 0.4 106 -999
2008-11-24 10:24:30 51°8.824 2°35.132 289.5 0.4 106 -999
2008-11-24 10:24:40 51°8.823 2°35.135 289.5 0.4 106 -999
2008-11-24 10:24:50 51°8.822 2°35.137 289.5 0.4 106 -999
2008-11-24 10:25:00 51°8.821 2°35.141 293.8 0.9 125 -999
2008-11-24 10:25:10 51°8.82 2°35.144 293.8 0.9 125 -999
2008-11-24 10:25:20 51°8.818 2°35.148 293.8 0.9 125 -999
2008-11-24 10:25:30 51°8.817 2°35.152 293.8 0.9 125 -999
2008-11-24 10:25:40 51°8.816 2°35.155 293.8 0.9 125 -999
2008-11-24 10:25:50 51°8.815 2°35.159 293.8 0.9 125 -999
2008-11-24 10:26:00 51°8.813 2°35.164 287.8 1.1 117 -999
2008-11-24 10:26:10 51°8.812 2°35.169 287.8 1.1 117 -999
2008-11-24 10:26:20 51°8.81 2°35.173 287.8 1.1 117 -999
2008-11-24 10:26:30 51°8.809 2°35.177 287.8 1.1 117 -999
2008-11-24 10:26:40 51°8.807 2°35.182 287.8 1.1 117 -999
2008-11-24 10:26:50 51°8.806 2°35.186 287.8 1.1 117 -999
2008-11-24 10:27:00 51°8.806 2°35.185 283 0.69 263 -999
2008-11-24 10:27:10 51°8.808 2°35.179 283 0.69 263 -999
2008-11-24 10:27:20 51°8.814 2°35.169 283 0.69 263 -999
2008-11-24 10:27:30 51°8.821 2°35.161 283 0.69 263 -999
2008-11-24 10:27:40 51°8.831 2°35.155 283 0.69 263 -999
2008-11-24 10:27:50 51°8.842 2°35.153 283 0.69 263 -999
2008-11-24 10:28:00 51°8.855 2°35.156 348.8 4.4 11 -999
2008-11-24 10:28:10 51°8.867 2°35.163 348.8 4.4 11 -999
2008-11-24 10:28:20 51°8.878 2°35.176 348.8 4.4 11 -999
2008-11-24 10:28:30 51°8.888 2°35.193 348.8 4.4 11 -999
2008-11-24 10:28:40 51°8.897 2°35.218 348.8 4.4 11 -999
2008-11-24 10:28:50 51°8.905 2°35.24 348.8 4.4 11 -999
2008-11-24 10:29:00 51°8.916 2°35.269 55.1 7.5 59 -999
2008-11-24 10:29:10 51°8.928 2°35.298 55.1 7.5 59 -999
2008-11-24 10:29:20 51°8.942 2°35.332 55.1 7.5 59 -999
2008-11-24 10:29:30 51°8.955 2°35.36 55.1 7.5 59 -999
2008-11-24 10:29:40 51°8.968 2°35.393 55.1 7.5 59 -999
2008-11-24 10:29:50 51°8.983 2°35.429 55.1 7.5 59 -999
2008-11-24 10:30:00 51°8.996 2°35.46 50.7 9.4 55 -999
2008-11-24 10:30:10 51°9.012 2°35.496 50.7 9.4 55 -999
2008-11-24 10:30:20 51°9.027 2°35.533 50.7 9.4 55 -999
2008-11-24 10:30:30 51°9.044 2°35.569 50.7 9.4 55 -999
2008-11-24 10:30:40 51°9.062 2°35.605 50.7 9.4 55 -999
2008-11-24 10:30:50 51°9.08 2°35.643 50.7 9.4 55 -999
2008-11-24 10:31:00 51°9.098 2°35.685 50.8 11.5 52 -999
2008-11-24 10:31:10 51°9.117 2°35.726 50.8 11.5 52 -999
2008-11-24 10:31:20 51°9.134 2°35.771 50.8 11.5 52 -999
2008-11-24 10:31:30 51°9.153 2°35.817 50.8 11.5 52 -999
2008-11-24 10:31:40 51°9.173 2°35.869 50.8 11.5 52 -999
2008-11-24 10:31:50 51°9.19 2°35.913 50.8 11.5 52 -999
2008-11-24 10:32:00 51°9.209 2°35.961 55 13 61 -999
2008-11-24 10:32:10 51°9.228 2°36.009 55 13 61 -999
2008-11-24 10:32:20 51°9.248 2°36.063 55 13 61 -999
2008-11-24 10:32:30 51°9.265 2°36.107 55 13 61 -999
2008-11-24 10:32:40 51°9.282 2°36.157 55 13 61 -999
2008-11-24 10:32:50 51°9.302 2°36.211 55 13 61 -999
2008-11-24 10:33:00 51°9.32 2°36.261 58 12.9 57 -999
2008-11-24 10:33:10 51°9.335 2°36.306 58 12.9 57 -999
2008-11-24 10:33:20 51°9.353 2°36.356 58 12.9 57 -999
2008-11-24 10:33:30 51°9.372 2°36.41 58 12.9 57 -999
2008-11-24 10:33:40 51°9.389 2°36.455 58 12.9 57 -999
2008-11-24 10:33:50 51°9.404 2°36.499 58 12.9 57 -999
2008-11-24 10:34:00 51°9.422 2°36.549 57.1 13 65 -999
2008-11-24 10:34:10 51°9.441 2°36.604 57.1 13 65 -999
2008-11-24 10:34:20 51°9.459 2°36.654 57.1 13 65 -999
2008-11-24 10:34:30 51°9.479 2°36.703 57.1 13 65 -999
2008-11-24 10:34:40 51°9.495 2°36.747 57.1 13 65 -999
2008-11-24 10:34:50 51°9.514 2°36.802 57.1 13 65 -999
2008-11-24 10:35:00 51°9.531 2°36.847 57.7 13 58 -999
2008-11-24 10:35:10 51°9.549 2°36.896 57.7 13 58 -999
2008-11-24 10:35:20 51°9.568 2°36.951 57.7 13 58 -999
2008-11-24 10:35:30 51°9.586 2°37.001 57.7 13 58 -999
2008-11-24 10:35:40 51°9.606 2°37.055 57.7 13 58 -999
2008-11-24 10:35:50 51°9.62 2°37.095 57.7 13 58 -999
2008-11-24 10:36:00 51°9.639 2°37.15 57.7 12.8 62 -999
2008-11-24 10:36:10 51°9.659 2°37.205 57.7 12.8 62 -999
2008-11-24 10:36:20 51°9.674 2°37.243 57.7 12.8 62 -999
2008-11-24 10:36:30 51°9.692 2°37.298 57.7 12.8 62 -999
2008-11-24 10:36:40 51°9.71 2°37.347 57.7 12.8 62 -999
2008-11-24 10:36:50 51°9.728 2°37.397 57.7 12.8 62 -999
2008-11-24 10:37:00 51°9.744 2°37.441 57.6 12.8 61 -999
2008-11-24 10:37:10 51°9.764 2°37.495 57.6 12.8 61 -999
2008-11-24 10:37:20 51°9.784 2°37.549 57.6 12.8 61 -999
2008-11-24 10:37:30 51°9.8 2°37.593 57.6 12.8 61 -999
2008-11-24 10:37:40 51°9.816 2°37.638 57.6 12.8 61 -999
2008-11-24 10:37:50 51°9.835 2°37.692 57.6 12.8 61 -999
2008-11-24 10:38:00 51°9.855 2°37.746 57.5 12.8 60 -999
2008-11-24 10:38:10 51°9.871 2°37.789 57.5 12.8 60 -999
2008-11-24 10:38:20 51°9.89 2°37.843 57.5 12.8 60 -999
2008-11-24 10:38:30 51°9.906 2°37.887 57.5 12.8 60 -999
2008-11-24 10:38:40 51°9.924 2°37.935 57.5 12.8 60 -999
2008-11-24 10:38:50 51°9.941 2°37.985 57.5 12.8 60 -999
2008-11-24 10:39:00 51°9.959 2°38.035 56.2 12.9 63 -999
2008-11-24 10:39:10 51°9.976 2°38.078 56.2 12.9 63 -999
2008-11-24 10:39:20 51°9.994 2°38.127 56.2 12.9 63 -999
2008-11-24 10:39:30 51°10.013 2°38.181 56.2 12.9 63 -999
2008-11-24 10:39:40 51°10.031 2°38.23 56.2 12.9 63 -999
2008-11-24 10:39:50 51°10.049 2°38.279 56.2 12.9 63 -999
2008-11-24 10:40:00 51°10.067 2°38.328 56.7 13 61 -999
2008-11-24 10:40:10 51°10.085 2°38.377 56.7 13 61 -999
2008-11-24 10:40:20 51°10.103 2°38.426 56.7 13 61 -999
2008-11-24 10:40:30 51°10.121 2°38.473 56.7 13 61 -999
2008-11-24 10:40:40 51°10.139 2°38.52 56.7 13 61 -999
2008-11-24 10:40:50 51°10.157 2°38.569 56.7 13 61 -999
2008-11-24 10:41:00 51°10.173 2°38.612 56.3 12.69 59 -999
2008-11-24 10:41:10 51°10.192 2°38.666 56.3 12.69 59 -999
2008-11-24 10:41:20 51°10.21 2°38.715 56.3 12.69 59 -999
2008-11-24 10:41:30 51°10.228 2°38.763 56.3 12.69 59 -999
2008-11-24 10:41:40 51°10.244 2°38.807 56.3 12.69 59 -999
2008-11-24 10:41:50 51°10.263 2°38.859 56.3 12.69 59 -999
2008-11-24 10:42:00 51°10.281 2°38.907 58.2 12.69 60 -999
2008-11-24 10:42:10 51°10.298 2°38.957 58.2 12.69 60 -999
2008-11-24 10:42:20 51°10.316 2°39.005 58.2 12.69 60 -999
2008-11-24 10:42:30 51°10.333 2°39.054 58.2 12.69 60 -999
2008-11-24 10:42:40 51°10.35 2°39.102 58.2 12.69 60 -999
2008-11-24 10:42:50 51°10.368 2°39.15 58.2 12.69 60 -999
2008-11-24 10:43:00 51°10.385 2°39.2 58.1 12.8 60 -999
2008-11-24 10:43:10 51°10.402 2°39.249 58.1 12.8 60 -999
2008-11-24 10:43:20 51°10.418 2°39.293 58.1 12.8 60 -999
2008-11-24 10:43:30 51°10.437 2°39.346 58.1 12.8 60 -999
2008-11-24 10:43:40 51°10.453 2°39.395 58.1 12.8 60 -999
2008-11-24 10:43:50 51°10.469 2°39.438 58.1 12.8 60 -999
2008-11-24 10:44:00 51°10.488 2°39.491 57.6 12.59 57 -999
2008-11-24 10:44:10 51°10.505 2°39.539 57.6 12.59 57 -999
2008-11-24 10:44:20 51°10.521 2°39.582 57.6 12.59 57 -999
2008-11-24 10:44:30 51°10.54 2°39.636 57.6 12.59 57 -999
2008-11-24 10:44:40 51°10.558 2°39.684 57.6 12.59 57 -999
2008-11-24 10:44:50 51°10.576 2°39.732 57.6 12.59 57 -999
2008-11-24 10:45:00 51°10.594 2°39.78 57.3 12.8 59 -999
2008-11-24 10:45:10 51°10.613 2°39.835 57.3 12.8 59 -999
2008-11-24 10:45:20 51°10.629 2°39.879 57.3 12.8 59 -999
2008-11-24 10:45:30 51°10.646 2°39.927 57.3 12.8 59 -999
2008-11-24 10:45:40 51°10.663 2°39.976 57.3 12.8 59 -999
2008-11-24 10:45:50 51°10.68 2°40.018 57.3 12.8 59 -999
2008-11-24 10:46:00 51°10.699 2°40.072 57.7 12.69 60 -999
2008-11-24 10:46:10 51°10.716 2°40.122 57.7 12.69 60 -999
2008-11-24 10:46:20 51°10.734 2°40.17 57.7 12.69 60 -999
2008-11-24 10:46:30 51°10.752 2°40.218 57.7 12.69 60 -999
2008-11-24 10:46:40 51°10.771 2°40.266 57.7 12.69 60 -999
2008-11-24 10:46:50 51°10.789 2°40.314 57.7 12.69 60 -999
2008-11-24 10:47:00 51°10.807 2°40.363 57 12.69 55 -999
2008-11-24 10:47:10 51°10.825 2°40.412 57 12.69 55 -999
2008-11-24 10:47:20 51°10.842 2°40.462 57 12.69 55 -999
2008-11-24 10:47:30 51°10.86 2°40.511 57 12.69 55 -999
2008-11-24 10:47:40 51°10.878 2°40.56 57 12.69 55 -999
2008-11-24 10:47:50 51°10.895 2°40.61 57 12.69 55 -999
2008-11-24 10:48:00 51°10.913 2°40.658 56.7 12.69 62 -999
2008-11-24 10:48:10 51°10.929 2°40.702 56.7 12.69 62 -999
2008-11-24 10:48:20 51°10.948 2°40.755 56.7 12.69 62 -999
2008-11-24 10:48:30 51°10.971 2°40.804 56.7 12.69 62 -999
2008-11-24 10:48:40 51°10.99 2°40.844 56.7 12.69 62 -999
2008-11-24 10:48:50 51°11.011 2°40.887 56.7 12.69 62 -999
2008-11-24 10:49:00 51°11.034 2°40.929 44.8 12.5 51 -999
2008-11-24 10:49:10 51°11.058 2°40.969 44.8 12.5 51 -999
2008-11-24 10:49:20 51°11.083 2°41.008 44.8 12.5 51 -999
2008-11-24 10:49:30 51°11.107 2°41.049 44.8 12.5 51 -999
2008-11-24 10:49:40 51°11.133 2°41.088 44.8 12.5 51 -999
2008-11-24 10:49:50 51°11.157 2°41.127 44.8 12.5 51 -999
2008-11-24 10:50:00 51°11.183 2°41.167 41.2 12.59 46 -999
2008-11-24 10:50:10 51°11.209 2°41.211 41.2 12.59 46 -999
2008-11-24 10:50:20 51°11.232 2°41.247 41.2 12.59 46 -999
2008-11-24 10:50:30 51°11.256 2°41.287 41.2 12.59 46 -999
2008-11-24 10:50:40 51°11.281 2°41.327 41.2 12.59 46 -999
2008-11-24 10:50:50 51°11.305 2°41.367 41.2 12.59 46 -999
2008-11-24 10:51:00 51°11.33 2°41.407 42.2 12.9 45 -999
2008-11-24 10:51:10 51°11.355 2°41.447 42.2 12.9 45 -999
2008-11-24 10:51:20 51°11.379 2°41.487 42.2 12.9 45 -999
2008-11-24 10:51:30 51°11.402 2°41.528 42.2 12.9 45 -999
2008-11-24 10:51:40 51°11.426 2°41.567 42.2 12.9 45 -999
2008-11-24 10:51:50 51°11.45 2°41.607 42.2 12.9 45 -999
2008-11-24 10:52:00 51°11.474 2°41.649 44.3 12.69 49 -999
2008-11-24 10:52:10 51°11.497 2°41.69 44.3 12.69 49 -999
2008-11-24 10:52:20 51°11.52 2°41.732 44.3 12.69 49 -999
2008-11-24 10:52:30 51°11.542 2°41.774 44.3 12.69 49 -999
2008-11-24 10:52:40 51°11.565 2°41.816 44.3 12.69 49 -999
2008-11-24 10:52:50 51°11.588 2°41.857 44.3 12.69 49 -999
2008-11-24 10:53:00 51°11.609 2°41.9 48 12.19 50 -999
2008-11-24 10:53:10 51°11.631 2°41.942 48 12.19 50 -999
2008-11-24 10:53:20 51°11.652 2°41.985 48 12.19 50 -999
2008-11-24 10:53:30 51°11.674 2°42.027 48 12.19 50 -999
2008-11-24 10:53:40 51°11.696 2°42.069 48 12.19 50 -999
2008-11-24 10:53:50 51°11.718 2°42.111 48 12.19 50 -999
2008-11-24 10:54:00 51°11.739 2°42.153 47.7 12.3 51 -999
2008-11-24 10:54:10 51°11.76 2°42.195 47.7 12.3 51 -999
2008-11-24 10:54:20 51°11.782 2°42.238 47.7 12.3 51 -999
2008-11-24 10:54:30 51°11.804 2°42.28 47.7 12.3 51 -999
2008-11-24 10:54:40 51°11.826 2°42.322 47.7 12.3 51 -999
2008-11-24 10:54:50 51°11.848 2°42.365 47.7 12.3 51 -999
2008-11-24 10:55:00 51°11.87 2°42.407 47.3 12.4 50 -999
2008-11-24 10:55:10 51°11.892 2°42.45 47.3 12.4 50 -999
2008-11-24 10:55:20 51°11.917 2°42.496 47.3 12.4 50 -999
2008-11-24 10:55:30 51°11.936 2°42.534 47.3 12.4 50 -999
2008-11-24 10:55:40 51°11.958 2°42.578 47.3 12.4 50 -999
2008-11-24 10:55:50 51°11.979 2°42.619 47.3 12.4 50 -999
2008-11-24 10:56:00 51°12 2°42.662 49.3 12.3 51 -999
2008-11-24 10:56:10 51°12.022 2°42.705 49.3 12.3 51 -999
2008-11-24 10:56:20 51°12.043 2°42.747 49.3 12.3 51 -999
2008-11-24 10:56:30 51°12.065 2°42.79 49.3 12.3 51 -999
2008-11-24 10:56:40 51°12.088 2°42.832 49.3 12.3 51 -999
2008-11-24 10:56:50 51°12.109 2°42.876 49.3 12.3 51 -999
2008-11-24 10:57:00 51°12.131 2°42.918 48.1 12.5 51 -999
2008-11-24 10:57:10 51°12.153 2°42.961 48.1 12.5 51 -999
2008-11-24 10:57:20 51°12.176 2°43.004 48.1 12.5 51 -999
2008-11-24 10:57:30 51°12.197 2°43.047 48.1 12.5 51 -999
2008-11-24 10:57:40 51°12.219 2°43.089 48.1 12.5 51 -999
2008-11-24 10:57:50 51°12.242 2°43.136 48.1 12.5 51 -999
2008-11-24 10:58:00 51°12.262 2°43.174 48.2 12.4 51 -999
2008-11-24 10:58:10 51°12.284 2°43.217 48.2 12.4 51 -999
2008-11-24 10:58:20 51°12.305 2°43.26 48.2 12.4 51 -999
2008-11-24 10:58:30 51°12.326 2°43.304 48.2 12.4 51 -999
2008-11-24 10:58:40 51°12.347 2°43.346 48.2 12.4 51 -999
2008-11-24 10:58:50 51°12.37 2°43.392 48.2 12.4 51 -999
2008-11-24 10:59:00 51°12.389 2°43.429 47.1 12.4 53 -999
2008-11-24 10:59:10 51°12.412 2°43.471 47.1 12.4 53 -999
2008-11-24 10:59:20 51°12.434 2°43.513 47.1 12.4 53 -999
2008-11-24 10:59:30 51°12.456 2°43.556 47.1 12.4 53 -999
2008-11-24 10:59:40 51°12.478 2°43.598 47.1 12.4 53 -999
2008-11-24 10:59:50 51°12.501 2°43.641 47.1 12.4 53 -999
2008-11-24 11:00:00 51°12.523 2°43.684 48.5 12.69 50 -999
2008-11-24 11:00:10 51°12.545 2°43.727 48.5 12.69 50 -999
2008-11-24 11:00:20 51°12.567 2°43.77 48.5 12.69 50 -999
2008-11-24 11:00:30 51°12.589 2°43.813 48.5 12.69 50 -999
2008-11-24 11:00:40 51°12.612 2°43.855 48.5 12.69 50 -999
2008-11-24 11:00:50 51°12.636 2°43.901 48.5 12.69 50 -999
2008-11-24 11:01:00 51°12.657 2°43.944 48.2 12 52 -999
2008-11-24 11:01:10 51°12.673 2°43.982 48.2 12 52 -999
2008-11-24 11:01:20 51°12.694 2°44.024 48.2 12 52 -999
2008-11-24 11:01:30 51°12.715 2°44.065 48.2 12 52 -999
2008-11-24 11:01:40 51°12.737 2°44.107 48.2 12 52 -999
2008-11-24 11:01:50 51°12.758 2°44.15 48.2 12 52 -999
2008-11-24 11:02:00 51°12.779 2°44.192 48.5 12.09 50 -999
2008-11-24 11:02:10 51°12.803 2°44.238 48.5 12.09 50 -999
2008-11-24 11:02:20 51°12.825 2°44.279 48.5 12.09 50 -999
2008-11-24 11:02:30 51°12.846 2°44.321 48.5 12.09 50 -999